When you browse on this site, cookies collect data to enhance your experience and personalize the content and advertising you see.
Visit our Privacy Policy to learn more. By continuing to use the site, you agree to this use of cookies and data.
  • In Latvia
  • List of Countries
  • For 7 days
  • Water Temperature
  • Satellite Maps
  • Weather Map
  • Weather Widgets
  • user-avatar
    Login

    Hourly Weather Spokoynyy

    Today, 21 May, Tuesday

    Time Temperature Precipitation Wind Pressure Humidity
    00:00 +16°C° 0 mm 1 mps 742 mmHg 91%
    01:00 +15°C° 0 mm 1 mps 742 mmHg 91%
    02:00 +15°C° 0 mm 1 mps 742 mmHg 90%
    03:00 +14°C° 0 mm 2 mps 741 mmHg 91%
    04:00 +14°C° 0 mm 2 mps 741 mmHg 90%
    05:00 +15°C° 0 mm 1 mps 742 mmHg 88%
    06:00 +15°C° 0 mm 1 mps 742 mmHg 87%
    07:00 +19°C° 0 mm 1 mps 742 mmHg 79%
    08:00 +21°C° 0 mm 1 mps 742 mmHg 72%
    09:00 +23°C° 0 mm 1 mps 742 mmHg 64%
    10:00 +25°C° 0 mm 2 mps 742 mmHg 61%
    11:00 +26°C° 0 mm 2 mps 742 mmHg 58%
    12:00 +27°C° 0 mm 3 mps 742 mmHg 54%
    13:00 +27°C° 0 mm 3 mps 742 mmHg 55%
    14:00 +27°C° 0 mm 3 mps 742 mmHg 56%
    15:00 +28°C° 0 mm 3 mps 742 mmHg 56%
    16:00 +26°C° 0.7 mm 3 mps 741 mmHg 66%
    17:00 +25°C° 0.7 mm 2 mps 741 mmHg 76%
    18:00 +24°C° 0.7 mm 2 mps 741 mmHg 86%
    19:00 +23°C° 0.3 mm 2 mps 741 mmHg 87%
    20:00 +20°C° 0.3 mm 2 mps 741 mmHg 89%
    21:00 +19°C° 0.3 mm 2 mps 740 mmHg 90%
    22:00 +18°C° 0 mm 2 mps 740 mmHg 90%
    23:00 +18°C° 0 mm 2 mps 740 mmHg 90%

    Tomorrow, 22 May, Wednesday

    Time Temperature Precipitation Wind Pressure Humidity
    00:00 +19°C° 0 mm 1 mps 740 mmHg 90%
    01:00 +18°C° 0 mm 1 mps 740 mmHg 91%
    02:00 +18°C° 0 mm 1 mps 740 mmHg 92%
    03:00 +16°C° 0 mm 1 mps 740 mmHg 93%
    04:00 +18°C° 0 mm 1 mps 740 mmHg 92%
    05:00 +18°C° 0 mm 1 mps 739 mmHg 91%
    06:00 +18°C° 0 mm 1 mps 739 mmHg 90%
    07:00 +20°C° 0 mm 1 mps 739 mmHg 82%
    08:00 +22°C° 0 mm 1 mps 739 mmHg 74%
    09:00 +24°C° 0 mm 1 mps 739 mmHg 67%
    10:00 +22°C° 2.1 mm 1 mps 739 mmHg 76%
    11:00 +20°C° 2.1 mm 2 mps 739 mmHg 84%
    12:00 +19°C° 2.1 mm 2 mps 739 mmHg 93%
    13:00 +19°C° 2.2 mm 2 mps 739 mmHg 91%
    14:00 +20°C° 2.2 mm 2 mps 739 mmHg 89%
    15:00 +20°C° 2.2 mm 2 mps 739 mmHg 86%
    16:00 +22°C° 1.3 mm 1 mps 739 mmHg 87%
    17:00 +22°C° 1.3 mm 1 mps 739 mmHg 87%
    18:00 +22°C° 1.3 mm 1 mps 739 mmHg 87%
    19:00 +20°C° 0.4 mm 1 mps 739 mmHg 88%
    20:00 +18°C° 0.4 mm 1 mps 739 mmHg 90%
    21:00 +16°C° 0.4 mm 1 mps 740 mmHg 91%
    22:00 +15°C° 0 mm 2 mps 740 mmHg 91%
    23:00 +15°C° 0 mm 2 mps 740 mmHg 90%

    Day after tomorrow, 23 May, Thursday

    Time Temperature Precipitation Wind Pressure Humidity
    00:00 +13°C° 0 mm 3 mps 740 mmHg 89%
    01:00 +14°C° 0 mm 2 mps 740 mmHg 88%
    02:00 +14°C° 0 mm 2 mps 740 mmHg 87%
    03:00 +13°C° 0 mm 2 mps 740 mmHg 87%
    04:00 +14°C° 0 mm 2 mps 740 mmHg 86%
    05:00 +14°C° 0 mm 2 mps 740 mmHg 85%
    06:00 +14°C° 0 mm 2 mps 740 mmHg 84%
    07:00 +17°C° 0 mm 3 mps 740 mmHg 73%
    08:00 +19°C° 0 mm 4 mps 740 mmHg 62%
    09:00 +22°C° 0 mm 5 mps 740 mmHg 51%
    10:00 +23°C° 0 mm 5 mps 740 mmHg 48%
    11:00 +24°C° 0 mm 6 mps 740 mmHg 45%
    12:00 +24°C° 0 mm 6 mps 740 mmHg 42%
    13:00 +24°C° 0 mm 6 mps 740 mmHg 42%
    14:00 +24°C° 0 mm 6 mps 740 mmHg 42%
    15:00 +24°C° 0 mm 6 mps 740 mmHg 43%
    16:00 +23°C° 0 mm 6 mps 740 mmHg 48%
    17:00 +22°C° 0 mm 5 mps 740 mmHg 53%
    18:00 +21°C° 0 mm 4 mps 740 mmHg 58%
    19:00 +19°C° 0 mm 4 mps 740 mmHg 62%
    20:00 +18°C° 0 mm 3 mps 740 mmHg 66%
    21:00 +16°C° 0 mm 3 mps 740 mmHg 70%
    22:00 +14°C° 0 mm 3 mps 740 mmHg 68%
    23:00 +14°C° 0 mm 3 mps 740 mmHg 66%

    24 May, Friday

    Time Temperature Precipitation Wind Pressure Humidity
    00:00 +13°C° 0 mm 3 mps 741 mmHg 64%
    01:00 +14°C° 0 mm 2 mps 740 mmHg 62%
    02:00 +14°C° 0 mm 2 mps 740 mmHg 59%
    03:00 +14°C° 0 mm 2 mps 740 mmHg 56%
    04:00 +14°C° 0 mm 2 mps 740 mmHg 58%
    05:00 +14°C° 0 mm 2 mps 740 mmHg 61%
    06:00 +14°C° 0 mm 2 mps 740 mmHg 63%
    07:00 +18°C° 0 mm 1 mps 740 mmHg 58%
    08:00 +21°C° 0 mm 1 mps 740 mmHg 54%
    09:00 +22°C° 0 mm 0 mps 741 mmHg 49%
    10:00 +25°C° 0 mm 1 mps 740 mmHg 48%
    11:00 +26°C° 0 mm 1 mps 740 mmHg 47%
    12:00 +26°C° 0 mm 2 mps 740 mmHg 45%
    13:00 +27°C° 0 mm 2 mps 740 mmHg 47%
    14:00 +27°C° 0 mm 2 mps 740 mmHg 48%
    15:00 +27°C° 0 mm 2 mps 739 mmHg 49%
    16:00 +26°C° 0 mm 2 mps 739 mmHg 55%
    17:00 +25°C° 0 mm 3 mps 739 mmHg 61%
    18:00 +25°C° 0 mm 3 mps 738 mmHg 66%
    19:00 +22°C° 0 mm 3 mps 738 mmHg 71%
    20:00 +21°C° 0 mm 3 mps 738 mmHg 76%
    21:00 +19°C° 0 mm 2 mps 738 mmHg 80%
    22:00 +18°C° 0 mm 2 mps 738 mmHg 79%
    23:00 +18°C° 0 mm 2 mps 737 mmHg 78%

    25 May, Saturday

    Time Temperature Precipitation Wind Pressure Humidity
    00:00 +18°C° 0 mm 2 mps 737 mmHg 77%
    01:00 +18°C° 0 mm 2 mps 737 mmHg 72%
    02:00 +17°C° 0 mm 2 mps 736 mmHg 68%
    03:00 +17°C° 0 mm 2 mps 736 mmHg 64%
    04:00 +17°C° 0.1 mm 2 mps 735 mmHg 67%
    05:00 +17°C° 0.1 mm 2 mps 735 mmHg 71%
    06:00 +17°C° 0.1 mm 2 mps 735 mmHg 74%
    07:00 +20°C° 0 mm 2 mps 735 mmHg 66%
    08:00 +24°C° 0 mm 2 mps 734 mmHg 58%
    09:00 +26°C° 0 mm 2 mps 734 mmHg 50%
    10:00 +28°C° 0 mm 2 mps 734 mmHg 48%
    11:00 +29°C° 0 mm 3 mps 734 mmHg 46%
    12:00 +31°C° 0 mm 3 mps 733 mmHg 43%
    13:00 +31°C° 0 mm 3 mps 733 mmHg 44%
    14:00 +31°C° 0 mm 2 mps 733 mmHg 45%
    15:00 +31°C° 0 mm 2 mps 733 mmHg 45%
    16:00 +30°C° 0 mm 2 mps 733 mmHg 53%
    17:00 +29°C° 0 mm 1 mps 733 mmHg 61%
    18:00 +26°C° 0 mm 0 mps 733 mmHg 68%
    19:00 +26°C° 0.1 mm 2 mps 734 mmHg 71%
    20:00 +24°C° 0.1 mm 3 mps 734 mmHg 74%
    21:00 +20°C° 0.1 mm 5 mps 735 mmHg 77%
    22:00 +20°C° 0.1 mm 4 mps 735 mmHg 79%
    23:00 +19°C° 0.1 mm 4 mps 736 mmHg 82%

    26 May, Sunday

    Time Temperature Precipitation Wind Pressure Humidity
    00:00 +18°C° 0.1 mm 4 mps 736 mmHg 84%
    01:00 +18°C° 0.2 mm 4 mps 737 mmHg 85%
    02:00 +18°C° 0.2 mm 4 mps 737 mmHg 86%
    03:00 +17°C° 0.2 mm 4 mps 737 mmHg 87%
    04:00 +18°C° 0 mm 4 mps 737 mmHg 86%
    05:00 +18°C° 0 mm 4 mps 737 mmHg 86%
    06:00 +18°C° 0 mm 4 mps 738 mmHg 85%
    07:00 +19°C° 0 mm 5 mps 738 mmHg 76%
    08:00 +21°C° 0 mm 5 mps 738 mmHg 67%
    09:00 +23°C° 0 mm 6 mps 739 mmHg 57%
    10:00 +24°C° 0 mm 7 mps 739 mmHg 54%
    11:00 +24°C° 0 mm 7 mps 739 mmHg 51%
    12:00 +26°C° 0 mm 7 mps 739 mmHg 48%
    13:00 +26°C° 0 mm 7 mps 739 mmHg 48%
    14:00 +26°C° 0 mm 7 mps 739 mmHg 49%
    15:00 +26°C° 0 mm 7 mps 739 mmHg 50%
    16:00 +24°C° 0 mm 7 mps 739 mmHg 54%
    17:00 +23°C° 0 mm 6 mps 740 mmHg 59%
    18:00 +22°C° 0 mm 5 mps 740 mmHg 63%
    19:00 +20°C° 0 mm 5 mps 740 mmHg 70%
    20:00 +18°C° 0 mm 4 mps 741 mmHg 76%
    21:00 +17°C° 0 mm 3 mps 741 mmHg 83%
    22:00 +16°C° 0 mm 2 mps 741 mmHg 85%
    23:00 +15°C° 0 mm 2 mps 741 mmHg 87%
    Show more